Location: Zihuatanejo
(17.6330°N, 101.5500°W)
Time: 18:57:02
(UTC-05:00)

Tiangong 2 - Visible Passes

Search period start: 21 March 2019 00:00
Search period end: 31 March 2019 00:00
Orbit: 379 x 390 km, 42.8° (Epoch: 21 March)

Date Brightness Start Highest point End Pass type
(mag) Time Alt. Az. Time Alt. Az. Time Alt. Az.
24 Mar 3.1 07:05:41 10° NNW 07:08:27 28° NE 07:11:15 10° E visible
25 Mar 4.0 06:07:50 12° NNE 06:08:51 13° NE 06:10:28 10° ENE visible
25 Mar 2.6 20:56:40 10° S 20:58:37 21° SSE 20:58:37 21° SSE visible
26 Mar 1.2 06:44:16 22° NW 06:46:11 75° NE 06:49:20 10° SE visible
26 Mar 2.7 21:33:15 10° WSW 21:35:24 34° W 21:35:24 34° W visible
27 Mar 4.2 05:48:34 16° E 05:48:34 16° E 05:49:26 10° E visible
27 Mar 3.0 07:21:20 10° W 07:23:13 15° SW 07:25:07 10° S visible
27 Mar 1.0 20:33:41 10° SW 20:36:47 62° SE 20:39:48 10° NE visible
28 Mar 2.8 06:25:18 22° S 06:25:18 22° S 06:26:45 10° SSE visible
28 Mar 3.7 21:11:41 10° W 21:13:59 19° NW 21:16:18 10° N visible
